ECHOSTAR 23

Last updated on Sat Dec 13 2025 00:02:49 GMT+0000 (Coordinated Universal Time)

1 42070U 17014A 25345.61250848 -.00000050 00000+0 00000+0 0 9993 2 42070 0.0180 350.5778 0001877 264.7435 295.8546 1.00270172 32041
UTC large
Height (km)
Speed (km/s)
/
Latitude / Longitude
Inclination (degrees)
Orbital Period (minutes)
Azimuth
Elevation
Range (km)
Doppler Factor

Next 0 passes for location: London (51.5072 / 0.1276)

Sorry there are no passes over London.